Location: Brede
(50.9167°N, 0.6000°E)
Time: 14:24:02
(UTC+00:00)

Transit 2A - Visible Passes

Search period start: 24 November 2020 00:00
Search period end: 04 December 2020 00:00
Orbit: 594 x 964 km, 66.7° (Epoch: 23 November)

Date Brightness Start Highest point End Pass type
(mag) Time Alt. Az. Time Alt. Az. Time Alt. Az.
24 Nov 8.2 16:38:36 10° ESE 16:40:19 11° E 16:42:02 10° E visible
24 Nov 6.5 18:16:19 10° SSW 18:22:27 54° ESE 18:23:54 44° ENE visible
24 Nov 7.6 19:59:58 10° WSW 20:04:25 37° WNW 20:04:25 37° WNW visible
25 Nov 6.8 17:42:31 10° S 17:48:23 41° ESE 17:51:10 26° ENE visible
25 Nov 6.9 19:25:27 10° WSW 19:31:36 54° NW 19:31:40 54° NW visible
25 Nov 9.1 21:11:29 10° WNW 21:12:11 12° WNW 21:12:11 12° WNW visible
26 Nov 7.2 17:08:56 10° S 17:14:22 31° ESE 17:18:20 16° ENE visible
26 Nov 6.6 18:51:03 10° SW 18:57:20 68° NW 18:58:50 50° NNE visible
26 Nov 8.5 20:36:38 10° W 20:39:21 20° WNW 20:39:21 20° WNW visible
27 Nov 7.6 16:35:36 10° SSE 16:40:24 23° ESE 16:45:01 10° ENE visible
27 Nov 6.3 18:16:46 10° SW 18:23:07 86° NW 18:25:56 34° NE visible
27 Nov 8.0 20:01:50 10° W 20:06:26 28° NW 20:06:26 28° NW visible
28 Nov 6.3 17:42:38 10° SSW 17:48:56 75° SE 17:52:57 22° NE visible
28 Nov 7.5 19:27:06 10° W 19:32:41 34° NW 19:33:26 33° NNW visible
28 Nov 9.2 21:13:47 10° NW 21:13:57 10° NW 21:13:57 10° NW visible
29 Nov 6.5 17:08:39 10° SSW 17:14:48 57° ESE 17:19:54 14° NE visible
29 Nov 7.3 18:52:27 10° WSW 18:58:19 41° NW 19:00:24 31° N visible
29 Nov 8.8 20:38:56 10° WNW 20:40:54 16° NW 20:40:54 16° NW visible
30 Nov 6.9 16:34:49 10° S 16:40:43 43° ESE 16:46:20 10° NE visible
30 Nov 7.0 18:17:55 10° WSW 18:23:59 51° NW 18:27:19 25° NNE visible
30 Nov 8.3 20:04:03 10° WNW 20:07:49 20° NNW 20:07:49 20° NNW visible
01 Dec 6.7 17:43:29 10° SW 17:49:43 64° NW 17:54:11 18° NNE visible
01 Dec 8.0 19:29:11 10° WNW 19:33:59 24° NNW 19:34:41 23° NNW visible
02 Dec 6.4 17:09:11 10° SW 17:15:29 82° NW 17:21:02 12° NE visible
02 Dec 7.8 18:54:22 10° W 18:59:32 27° NNW 19:01:31 23° N visible
02 Dec 8.9 20:41:08 10° NW 20:42:00 12° NW 20:42:00 12° NW visible
03 Dec 6.4 16:35:01 10° SSW 16:41:18 79° SE 16:47:11 10° NE visible
03 Dec 7.6 18:19:37 10° W 18:25:06 32° NW 18:28:20 19° NNE visible
03 Dec 8.5 20:06:21 10° NW 20:08:49 16° NNW 20:08:49 16° NNW visible
